Weather History for Denver Centennial, CO

Change the Weather History Date:

Friday, July 11, 2014

  Actual Average Record
Temperature  
Mean Temperature 77 °F -  
Max Temperature 90 °F 86 °F 97 °F (2013)
Min Temperature 63 °F 56 °F 51 °F (1999)
Cooling Degree Days 12    
Month to date cooling degree days 101  
Growing Degree Days 26 (Base 50)    
Moisture  
Dew Point 54 °F    
Average Humidity 53    
Maximum Humidity 81    
Minimum Humidity 24    
Precipitation  
Precipitation 0.43 in - - ()
Month to date precipitation 0.45  
Year to date precipitation 6.05  
Sea Level Pressure  
Sea Level Pressure 29.98 in    
Wind  
Wind Speed 9 mph (NW)    
Max Wind Speed 40 mph    
Max Gust Speed 49 mph    
Visibility 10 miles    
Events Rain , Thunderstorm    
Averages and records for this station are not official NWS values.
T = Trace of Precipitation, MM = Missing Value Source: NWS Daily Summary

Daily Weather History Graph

Daily Weather History Graph

Search for Another Location

Airport:

Trip Planner

Search our weather history database for the weather conditions in past years. The results will help you decide how hot, cold, wet, or windy it might be!

Date:

Astronomy

Jul. 11, 2014 Rise Set
Actual Time 5:41 AM MDT 8:27 PM MDT
Civil Twilight 5:09 AM MDT 8:59 PM MDT
Nautical Twilight 4:29 AM MDT 9:39 PM MDT
Astronomical Twilight 3:44 AM MDT 10:24 PM MDT
Moon 7:40 PM MDT (7/11) 4:56 AM MDT (7/11)
Length of Visible Light 15h 49m
Length of Day
14h 46m
Waxing Gibbous, 99% of the Moon is Illuminated
Jul 11
Waxing Gibbous
Jul 12
Full
Jul 18
Last Quarter
Jul 26
New
Aug 3
First Quarter

Hourly Weather History & Observations

Time (MDT) Temp. Dew Point Humidity Pressure Visibility Wind Dir Wind Speed Gust Speed Precip Events Conditions
12:53 AM 70.0 °F 54.0 °F 57% 29.88 in 10.0 mi NNW 15.0 mph - N/A   Clear
1:53 AM 70.0 °F 54.0 °F 57% 29.88 in 10.0 mi North 9.2 mph - N/A   Clear
2:53 AM 66.9 °F 54.0 °F 63% 29.89 in 10.0 mi NNW 6.9 mph - N/A   Clear
3:53 AM 64.9 °F 54.0 °F 68% 29.91 in 10.0 mi NW 5.8 mph - N/A   Clear
4:53 AM 64.0 °F 54.0 °F 70% 29.94 in 10.0 mi West 4.6 mph - N/A   Mostly Cloudy
5:53 AM 64.9 °F 54.0 °F 68% 29.93 in 10.0 mi WSW 6.9 mph - N/A   Mostly Cloudy
6:53 AM 68.0 °F 53.1 °F 59% 29.91 in 10.0 mi Calm Calm - N/A   Scattered Clouds
7:53 AM 71.1 °F 53.1 °F 53% 29.93 in 10.0 mi Calm Calm - N/A   Scattered Clouds
8:53 AM 75.0 °F 52.0 °F 44% 29.94 in 10.0 mi Variable 3.5 mph - N/A   Scattered Clouds
9:53 AM 80.1 °F 50.0 °F 35% 29.92 in 10.0 mi Variable 3.5 mph - N/A   Scattered Clouds
10:53 AM 82.0 °F 48.0 °F 30% 29.92 in 10.0 mi Variable 6.9 mph - N/A   Mostly Cloudy
11:53 AM 84.9 °F 48.0 °F 28% 29.91 in 10.0 mi Variable 4.6 mph - N/A   Mostly Cloudy
12:53 PM 88.0 °F 48.0 °F 25% 29.90 in 10.0 mi North 8.1 mph - N/A   Mostly Cloudy
1:53 PM 88.0 °F 46.9 °F 24% 29.88 in 10.0 mi NE 8.1 mph 17.3 mph N/A   Mostly Cloudy
2:53 PM 86.0 °F 50.0 °F 29% 29.88 in 10.0 mi NNE 8.1 mph 18.4 mph N/A Thunderstorm Thunderstorm
3:00 PM 86.0 °F 48.9 °F 28% 30.13 in 10.0 mi NE 9.2 mph 18.4 mph N/A Thunderstorm Thunderstorm
3:34 PM 64.9 °F 55.9 °F 73% 30.20 in 8.0 mi South 34.5 mph 47.2 mph 0.02 in Rain , Thunderstorm Thunderstorms and Rain
3:45 PM 69.1 °F 54.0 °F 58% 30.21 in 6.0 mi SSE 12.7 mph 40.3 mph 0.23 in Rain , Thunderstorm Thunderstorms and Rain
3:53 PM 66.9 °F 54.0 °F 63% 30.03 in 7.0 mi South 17.3 mph 23.0 mph 0.30 in Rain , Thunderstorm Light Thunderstorms and Rain
4:53 PM 64.9 °F 57.9 °F 78% 30.01 in 10.0 mi West 16.1 mph - 0.10 in Rain , Thunderstorm Light Thunderstorms and Rain
5:21 PM 66.0 °F 59.0 °F 78% 30.20 in 10.0 mi West 6.9 mph - 0.03 in Rain Light Rain
5:53 PM 66.9 °F 60.1 °F 79% 30.05 in 10.0 mi ESE 4.6 mph - 0.03 in Rain Light Rain
6:53 PM 66.9 °F 61.0 °F 81% 30.03 in 10.0 mi South 11.5 mph - 0.00 in   Mostly Cloudy
7:53 PM 69.1 °F 61.0 °F 75% 30.01 in 10.0 mi Calm Calm - N/A   Mostly Cloudy
8:53 PM 66.0 °F 60.1 °F 81% 29.98 in 10.0 mi South 8.1 mph - N/A   Mostly Cloudy
9:53 PM 66.9 °F 59.0 °F 76% 29.99 in 10.0 mi NNE 3.5 mph - N/A   Mostly Cloudy
10:53 PM 66.0 °F 59.0 °F 78% 30.04 in 10.0 mi Calm Calm - N/A   Overcast
11:53 PM 66.9 °F 59.0 °F 76% 30.04 in 10.0 mi NW 5.8 mph - N/A   Overcast